Location: Unspecified
(0.0000°N, 0.0000°E)
Time: 23:22:12
(UTC+00:00)

Vanguard 1 - Pass Details

Date: 06 October 2020
Orbit: 649 x 3833 km, 34.3° (Epoch: 28 October)

Event Time Altitude Azimuth Distance (km) Brightness Sun altitude
Rises 03:35:28 0° 302° (WNW) 3,175 - -33.0°
Reaches altitude 10° 03:37:28 10° 300° (WNW) 2,404 - -32.5°
Maximum altitude 03:42:58 76° 215° (SW) 1,134 - -31.1°
Exits shadow 03:43:07 75° 201° (SSW) 1,146 10.2 -31.1°
Drops below altitude 10° 03:52:41 10° 130° (SE) 4,113 13.9 -28.7°
Sets 03:57:08 0° 129° (SE) 5,637 14.8 -27.6°
